CZ-6A DEB, 56248

Orbit data source: Space-Track

CZ-6A DEB, 56248 is space debris in SSO originally from a launch on Fri, 11 Nov 2022 UTC launched from the Taiyaun Space Center, China (TSC). Debris objects in space refer to the collection of defunct objects orbiting the Earth. Examples of debris include non-operational satellites, rocket bodies, and fragments generated from explosions, collisions, or faulty payload assembly.

Loading next visibility...
Identifier
56248, 2022-151ABQ
Orbit
SSO
Country
Flag of CNCN / PRC
Related business
Manufacturer
SAST
Mission
Spacecraft
Bus & Motor
Unknown
Mass
Unknown
Launch date (UTC)
2022-11-11 (4 years ago)
Launch vehicle
Unknown
Launch site
Taiyaun Space Center, China (TSC)
Object type
Payload
Rocket body
Debris
Shape & HBR
Unknown shape, 0.1 m
Radar Cross Section
Medium (>0.1 m² and <1 m²)

Expand to show TLE details & history
Last TLE update: 3 days ago

TLE from 3 days ago
0 CZ-6A DEB
1 56248U 22151ABQ 26191.78537910 -.00000083  00000-0 -24356-4 0  9992
2 56248  98.8692 175.6400 0074365 311.4461  48.0334 14.03105672169442
Epoch: 2026-07-10T18:50Z
TLE epoch observation values (Epoch: 2026-07-10T18:50:56.754Z)
Latitude
0.00004°
Longitude
-35.80445°
Altitude
850.055 km
Speed
7.446 km/s
True Right ascension
11h 42m 33s
True Declination
0° 00' 00"
Sunlit
Object was in daylight at epoch
Visualization orbit readout
Latitude
Unknown
Longitude
Unknown
Altitude
Unknown
Speed
Unknown
Apparent Right ascension
Unknown
Apparent Declination
Unknown
Sunlit
N/A
Visualization observer readout
Local Sidereal Time
21:46:31
Azimuth
Unknown
Elevation
Unknown
Doppler factor
Unknown
Orbital elements
Apogee altitude
934.226 km
Perigee altitude
826.272 km
Semi-major axis
7,258.386 km
Eccentricity
0.00744
Inclination
98.8692°
RAAN
175.64°
Arg. of periapsis
311.4461°
True anomaly
48.67096°
Mean anomaly
48.0334°
Eccentric anomaly
48.35178°
Mean motion
3.50981 °/min
Orbital period
102.57 mins
BSTAR
-0.000024356
Loading maneuver chart data...
Computing Atmospheric mass density...
Loading historical data...
Loading historical data...
Loading historical data...
Loading historical data...
Loading historical data...
Loading historical data...
Loading historical data...

Documentation

Showing up to 5 results
|